CAPE
1792 1802 927 1013 1058 1792 1649 618 0 0 632 1582 1557 1159 1061 786 1183 1239 1705 1941 1599 1874 1851 1879 2021 1814 1917 2067 1841 1527 942 767 1080 731 867 593 907 941 650 764 633 413 369
1263 1105 232 334 466 1343 762 902 712 467 845 1952 1969 1336 1016 1201 1196 1287 1271 1295 1738 1721 2036 2315 2313 2271 2048 2142 2149 2001 1483 1239 1487 1514 1238 1060 1389 1214 1041 791 830 819 810
867 689 235 414 489 72 3 90 808 1346 1257 1744 1975 922 1771 1674 1419 1490 987 1209 1365 2114 2335 2266 2408 2176 2125 2452 2053 1856 1723 1825 1629 1387 1446 1351 1216 1170 1301 1097 837 1030 1025
770 492 338 1081 341 178 7 0 699 1130 1681 1501 1570 1746 765 1167 1684 1224 1510 1351 1318 1011 1692 2078 1973 2038 2090 2241 1728 1972 1685 1123 1584 1004 1072 1226 1313 1009 652 663 1026 1043 1037
336 442 1208 1330 1639 930 258 91 1962 1562 1879 1806 1506 843 706 1603 1939 1144 1171 946 1356 1196 1312 1473 1392 1186 1660 1632 1791 2084 1261 753 1120 804 692 561 813 852 353 456 907 935 908
524 1085 1378 1683 2137 1968 1494 1036 1570 1286 1095 1304 1440 1092 1380 1410 1433 1145 979 892 693 1169 1419 1018 775 675 1139 1636 1990 2006 1548 954 727 1018 964 949 883 796 619 584 396 338 572
761 1060 777 1390 1502 1835 1457 1472 1254 1177 1692 1312 1197 1059 1050 1315 1275 1175 944 768 365 1032 659 515 1058 1097 1217 1433 1422 1652 1981 1556 1291 1279 1182 1044 1079 1013 877 822 469 396 336
719 1578 1260 806 663 1329 1289 1395 1419 1622 1584 1535 973 955 737 866 999 746 395 685 426 775 781 866 610 527 203 301 642 1228 1217 1814 1650 1890 1639 1067 1035 962 721 678 434 302 365
700 641 978 1283 1391 1622 1377 1753 1971 1582 1417 1699 1537 1005 809 767 768 810 388 302 681 577 1007 818 559 70 78 50 34 459 684 964 1264 1631 1386 1165 1095 699 629 550 384 285 262
1243 1266 1379 1275 1152 1671 1855 1542 1665 1599 1472 1188 1402 878 676 691 778 402 226 495 393 625 716 773 764 181 3 15 317 181 168 257 511 500 379 333 278 324 275 234 252 290 258
839 709 847 1342 1565 1693 1877 1970 2179 1925 1662 1083 1252 1020 756 598 734 810 384 527 73 69 105 200 91 565 39 34 8 28 32 31 37 66 69 61 69 76 81 94 133 173 224
749 1300 845 993 1185 1387 1630 1774 1330 1259 1538 1434 1162 1188 950 799 769 811 606 298 5 7 3 10 7 27 37 31 42 12 8 3 1 5 5 18 23 22 35 37 57 36 37
399 694 608 953 1144 1220 1369 1370 1388 1506 1377 1129 813 897 897 852 958 1015 578 149 49 53 10 2 8 24 18 8 9 11 11 5 4 4 6 6 10 14 15 17 19 20 14
642 759 572 751 647 1015 849 879 1005 1099 974 1108 1010 742 817 1105 1004 705 308 106 82 243 108 5 3 3 12 15 12 10 7 7 5 2 2 2 4 5 6 2 4 4 6
638 569 188 295 368 371 890 1171 496 391 846 897 933 923 948 738 765 1059 955 291 411 247 23 10 5 3 2 7 3 1 3 5 7 5 3 2 1 3 4 3 4 5 3
548 453 152 142 212 278 666 665 212 156 133 129 154 403 605 882 996 1035 965 968 547 435 13 5 7 5 3 7 9 1 1 3 3 2 1 1 1 1 2 1 1 2 1
321 453 333 333 309 428 450 750 295 79 64 102 129 162 240 415 581 790 687 769 524 96 1 5 5 2 2 0 0 0 0 0 0 0 0 0 0 0 0 0 0 0 1
653 545 411 487 455 324 400 427 97 14 14 1 7 15 32 32 68 137 253 469 446 197 1 1 5 4 2 0 0 0 0 0 0 0 0 0 0 0 0 0 0 0 1
610 399 424 406 234 202 214 237 138 13 13 6 3 2 5 90 20 234 130 3 0 0 1 1 3 3 3 0 0 0 0 0 0 0 0 0 0 0 0 0 0 0 0
622 505 361 272 200 138 60 80 30 60 8 0 0 0 0 0 0 206 152 2 0 1 3 1 2 4 4 2 0 0 0 0 0 0 0 0 0 0 0 0 0 0 0
640 551 435 191 108 0 0 0 23 16 21 4 0 0 0 0 0 0 0 3 0 2 2 2 3 3 3 4 2 1 0 0 0 0 0 0 0 0 0 0 0 0 0
716 625 474 247 0 0 0 0 0 2 11 12 9 0 0 0 0 0 0 0 0 0 0 0 0 0 0 0 0 4 2 2 1 0 4 8 7 0 0 0 0 0 0
885 553 297 101 0 0 0 0 0 15 7 14 2 0 0 0 0 0 0 0 0 0 2 20 15 27 16 22 23 45 36 48 40 33 37 42 42 14 0 0 0 0 0
824 624 509 298 0 0 0 0 0 30 16 13 0 0 0 0 0 0 0 0 0 0 0 0 0 0 0 0 0 9 72 83 64 48 81 47 42 36 0 0 0 0 0
791 432 435 211 11 0 0 0 0 54 29 13 0 0 0 0 0 0 0 0 0 0 0 0 0 0 0 0 0 0 16 58 55 57 50 41 41 44 0 0 0 0 0
597 241 290 184 21 0 0 0 0 2 39 0 0 0 0 0 0 0 10 2 0 0 0 0 0 0 0 0 0 0 0 0 0 36 0 1 48 60 63 13 0 0 0
CIN
-14 -16 -58 -73 -76 -14 -23 -72 -16 -0 -41 -38 -27 -37 -34 -41 -40 -39 -64 -39 -45 -40 -35 -30 -2 -0 -0 -0 -0 -0 -0 -0 -0 -0 -0 -0 -0 -0 -0 -0 -0 -0 -2
-29 -29 -150 -115 -149 -23 -48 -27 -50 -20 -45 -11 -19 -35 -40 -30 -42 -37 -91 -70 -37 -46 -38 -18 -7 -0 -0 -0 -0 -0 -0 -0 -0 -0 -0 -0 -0 -0 -0 -0 -0 -1 -0
-28 -60 -124 -126 -126 -218 -123 -203 -35 -51 -50 -28 -18 -38 -22 -20 -25 -33 -67 -71 -53 -43 -46 -27 -12 -13 -7 -0 -0 -0 -1 -0 -1 -0 -0 -0 -1 -0 -0 -0 -0 -0 -0
-20 -47 -72 -47 -72 -137 -111 -0 -38 -48 -34 -36 -33 -32 -94 -21 -27 -48 -35 -42 -81 -47 -58 -44 -37 -24 -16 -3 -5 -0 -1 -4 -0 -5 -10 -4 -0 -2 -10 -2 -0 -0 -0
-22 -39 -12 -12 -39 -42 -53 -10 -15 -21 -14 -15 -32 -92 -86 -42 -22 -6 -36 -51 -48 -44 -54 -58 -49 -31 -15 -13 -7 -0 -6 -33 -20 -44 -47 -33 -8 -0 -16 -6 -1 -0 -0
-17 -3 -13 -8 -7 -10 -15 -34 -18 -29 -31 -19 -12 -17 -41 -31 -43 -44 -30 -25 -48 -22 -36 -86 -72 -91 -34 -22 -9 -4 -8 -40 -45 -29 -34 -13 -10 -11 -12 -3 -3 -3 -1
-14 -16 -23 -20 -15 -7 -10 -17 -23 -20 -8 -21 -10 -29 -29 -27 -18 -30 -38 -37 -26 -38 -74 -46 -55 -42 -53 -45 -32 -15 -2 -9 -15 -12 -14 -12 -6 -2 -2 -1 -5 -0 -6
-48 -9 -10 -26 -37 -17 -19 -25 -15 -7 -6 -15 -14 -10 -6 -18 -24 -26 -96 -41 -40 -63 -57 -41 -97 -130 -179 -144 -35 -26 -20 -3 -7 -2 -5 -10 -9 -9 -13 -9 -5 -3 -0
-55 -32 -11 -13 -4 -8 -16 -14 -6 -1 -3 -3 -4 -4 -1 -2 -20 -39 -108 -87 -62 -109 -36 -77 -112 -213 -199 -151 -3 -24 -28 -23 -14 -2 -1 -1 -2 -18 -16 -7 -8 -8 -8
-13 -4 -4 -12 -15 -8 -5 -6 -6 -3 -4 -4 -2 -15 -25 -18 -2 -14 -33 -39 -62 -37 -66 -37 -64 -134 -104 -92 -1 -24 -26 -17 -17 -18 -15 -20 -39 -35 -23 -6 -0 -20 -0
-3 -5 -12 -3 -1 -1 -1 -0 -0 -0 -2 -2 -1 -1 -8 -14 -14 -5 -11 -4 -14 -30 -58 -54 -72 -10 -78 -64 -86 -73 -97 -79 -100 -107 -82 -76 -72 -50 -38 -27 -13 -1 -0
-13 -4 -3 -2 -0 -1 -0 -0 -7 -4 -1 -1 -5 -2 -3 -5 -12 -6 -8 -5 -7 -0 -0 -59 -66 -60 -58 -62 -59 -77 -0 -0 -0 -0 -0 -62 -43 -36 -46 -36 -23 -22 -7
-32 -18 -9 -3 -1 -1 -1 -1 -2 -1 -2 -5 -9 -10 -12 -14 -11 -15 -23 -15 -20 -6 -0 -0 -25 -50 -12 -1 -0 -0 -0 -0 -0 -0 -0 -0 -0 -0 -0 -0 -0 -0 -0
-18 -5 -5 -3 -6 -3 -7 -6 -3 -3 -6 -4 -2 -16 -12 -7 -13 -10 -18 -19 -0 -0 -0 -0 -0 -0 -0 -0 -0 -0 -0 -0 -0 -0 -0 -0 -0 -0 -1 -0 -0 -0 -0
-5 -3 -6 -12 -9 -18 -7 -3 -16 -17 -6 -4 -2 -2 -6 -17 -18 -13 -14 -49 -23 -0 -3 -0 -0 -0 -0 -0 -0 -0 -0 -0 -0 -0 -0 -0 -0 -0 -0 -0 -0 -0 -0
-22 -7 -15 -7 -7 -7 -3 -8 -10 -30 -29 -35 -40 -11 -5 -4 -3 -8 -8 -9 -11 -12 -14 -0 -0 -0 -0 -0 -0 -0 -1 -0 -0 -0 -0 -0 -0 -0 -0 -0 -0 -0 -0
-28 -13 -9 -10 -13 -1 -1 -5 -7 -86 -106 -85 -54 -42 -15 -5 -3 -3 -13 -10 -12 -44 -0 -0 -0 -0 -0 -0 -0 -0 -0 -0 -0 -0 -0 -0 -0 -0 -0 -0 -0 -0 -0
-1 -1 -5 -2 -2 -2 -4 -3 -47 -1 -1 -0 -13 -8 -137 -108 -46 -22 -5 -1 -2 -6 -0 -0 -0 -0 -0 -0 -0 -0 -0 -0 -0 -0 -0 -0 -0 -0 -0 -0 -0 -0 -0
-3 -2 -0 -2 -1 -4 -3 -2 -30 -6 -2 -3 -5 -6 -8 -40 -30 -6 -16 -7 -0 -0 -0 -0 -0 -0 -0 -0 -0 -0 -0 -0 -0 -0 -0 -0 -0 -0 -0 -0 -0 -0 -0
-0 -1 -3 -0 -2 -2 -6 -9 -6 -13 -3 -0 -0 -0 -0 -0 -0 -6 -2 -0 -0 -0 -0 -0 -0 -0 -0 -0 -0 -0 -0 -0 -0 -0 -0 -0 -0 -0 -0 -0 -0 -0 -0
-1 -0 -0 -0 -0 -4 -0 -6 -3 -2 -3 -2 -0 -0 -0 -0 -0 -0 -0 -0 -0 -0 -0 -0 -0 -0 -0 -0 -0 -1 -0 -0 -0 -0 -0 -0 -0 -0 -0 -0 -0 -0 -0
-0 -0 -0 -1 -0 -0 -0 -0 -0 -2 -2 -2 -3 -0 -0 -0 -0 -0 -0 -0 -1 -0 -0 -0 -0 -0 -0 -0 -0 -14 -4 -17 -1 -0 -7 -13 -33 -0 -0 -0 -0 -0 -0
-0 -0 -8 -24 -0 -0 -0 -0 -0 -2 -2 -2 -12 -4 -4 -0 -0 -0 -0 -0 -0 -0 -6 -6 -3 -4 -4 -6 -12 -4 -9 -10 -14 -22 -6 -9 -18 -23 -0 -0 -0 -0 -0
-1 -0 -0 -7 -0 -0 -0 -0 -0 -1 -2 -3 -0 -0 -0 -0 -0 -0 -0 -0 -0 -0 -0 -0 -0 -0 -0 -0 -0 -1 -7 -5 -9 -18 -7 -5 -21 -28 -71 -0 -0 -0 -0
-1 -1 -1 -6 -8 -0 -0 -0 -0 -2 -1 -5 -0 -0 -0 -0 -0 -0 -0 -0 -0 -0 -0 -0 -0 -0 -0 -0 -0 -0 -9 -18 -17 -30 -29 -13 -24 -47 -16 -0 -0 -0 -0
-10 -24 -1 -5 -15 -0 -0 -0 -0 -1 -2 -0 -0 -0 -0 -0 -0 -0 -8 -0 -1 -0 -0 -0 -0 -0 -0 -0 -0 -0 -0 -0 -0 -33 -0 -72 -22 -23 -37 -121 -0 -0 -0
Wind_Speed
2 3 2 0 0 2 2 3 3 11 7 7 6 7 6 6 5 1 3 12 14 16 15 15 13 13 14 12 12 11 10 10 11 9 9 9 8 9 8 8 10 9 8
0 1 1 2 1 3 5 5 7 13 11 6 6 7 6 5 5 3 4 7 15 15 15 15 15 15 15 15 14 13 13 12 10 11 10 10 9 10 10 10 10 10 10
3 3 2 2 4 4 9 10 11 6 5 5 4 5 3 3 4 5 6 6 8 15 16 16 16 16 15 15 15 13 12 11 10 8 9 11 11 11 11 12 12 11 11
3 3 4 3 4 3 4 10 10 4 4 4 3 3 2 8 6 5 4 4 6 6 12 17 17 16 15 16 15 13 12 10 11 10 11 10 12 13 12 11 12 12 13
5 4 4 5 4 5 9 13 6 4 4 4 4 5 5 5 4 7 6 6 6 7 5 13 15 10 14 17 17 16 15 15 14 13 15 13 12 10 9 9 11 13 14
5 6 5 6 4 4 4 4 5 4 5 6 5 5 5 6 5 5 5 5 6 7 5 6 8 10 22 16 17 18 19 18 17 16 15 13 12 12 10 12 11 9 14
5 5 5 4 5 4 5 6 5 5 4 3 2 4 4 7 7 6 7 7 6 8 6 5 7 6 7 16 17 16 18 19 18 17 17 14 14 13 14 12 10 9 10
5 4 4 4 5 4 5 5 4 3 2 2 3 1 3 4 7 8 2 5 4 6 9 3 5 5 6 6 6 13 14 16 18 18 17 15 15 15 15 12 11 11 12
3 8 3 2 2 4 4 4 4 3 4 2 5 4 3 3 3 2 4 8 3 5 3 6 6 3 5 7 14 6 8 10 12 12 9 8 13 16 13 12 12 13 14
4 5 5 5 5 4 5 3 2 3 2 4 1 5 7 3 2 3 3 2 9 8 10 4 4 4 5 5 10 11 9 10 7 8 8 8 10 11 6 3 5 5 6
3 4 4 5 5 3 3 5 4 4 3 3 3 2 4 4 5 3 1 4 7 7 6 8 6 7 8 5 6 8 10 7 9 11 9 9 9 7 5 4 4 6 8
3 4 5 4 2 3 4 3 4 5 3 3 4 3 3 2 3 2 1 4 5 5 6 6 6 6 5 6 10 14 12 12 12 13 13 14 13 12 11 11 11 11 12
3 6 5 5 4 3 4 3 4 4 4 4 4 3 3 4 3 3 3 3 3 2 2 5 5 4 5 6 8 13 15 14 14 15 14 14 15 15 15 15 14 14 13
4 5 6 6 6 5 4 3 4 5 5 4 7 6 3 2 1 1 2 6 3 2 3 4 4 4 4 3 11 15 9 15 15 14 14 14 14 15 15 15 15 15 15
6 6 5 5 5 6 6 4 6 7 6 5 6 6 5 4 3 2 2 6 4 4 3 4 3 5 4 6 10 7 8 13 14 14 13 12 13 13 14 14 14 13 13
5 5 3 3 4 5 5 6 6 7 7 7 6 8 7 5 5 4 3 3 2 1 4 2 3 3 5 5 9 6 8 13 14 13 13 12 12 13 13 13 13 12 13
5 4 2 3 4 3 4 6 7 7 7 7 7 7 8 8 6 4 5 3 3 5 6 3 3 4 5 6 5 5 6 6 6 11 13 11 12 13 13 13 13 13 14
4 5 5 5 6 6 6 7 8 8 8 9 8 9 9 6 8 7 6 8 7 6 6 9 2 3 5 4 5 5 4 4 5 10 10 10 11 12 13 13 13 13 12
4 6 5 6 6 5 5 6 7 8 6 8 10 9 9 8 6 6 7 7 7 7 7 6 4 2 2 1 3 2 2 1 3 6 8 9 9 11 12 12 12 12 11
5 6 4 5 4 6 6 6 7 6 9 9 9 9 9 9 8 5 7 9 8 8 8 7 5 3 2 1 1 1 2 2 1 3 4 5 5 8 11 12 12 11 11
5 5 5 3 4 8 6 7 7 5 6 7 8 8 9 12 16 16 6 8 9 8 6 6 3 2 1 1 1 3 2 3 2 2 3 4 4 4 4 10 11 10 9
5 3 4 6 9 6 8 9 8 5 5 5 5 6 6 10 12 14 15 21 9 7 8 6 4 4 4 4 3 3 3 2 1 4 3 3 5 4 5 4 10 10 8
5 3 4 7 9 5 6 9 11 5 5 5 7 8 8 8 7 8 12 14 15 15 12 6 6 4 4 2 3 4 3 3 3 3 3 3 4 4 4 6 13 10 10
6 4 4 7 9 4 4 7 8 4 4 6 7 6 5 7 7 6 7 8 8 8 7 6 6 5 4 4 3 3 2 1 1 3 3 2 3 3 4 4 12 10 8
6 5 4 7 9 5 1 5 7 1 5 7 7 6 5 6 8 9 7 6 6 5 6 8 7 6 4 2 3 4 0 3 4 3 2 1 2 4 4 4 6 10 9
7 6 5 6 9 7 4 2 4 4 5 6 6 6 10 5 6 8 1 7 6 5 5 5 2 3 4 2 7 6 5 5 4 4 3 3 1 3 3 3 5 6 4
Wind_Direction
148 105 55 68 92 340 201 180 141 264 262 252 214 218 222 250 265 136 140 179 189 186 190 189 202 209 213 214 212 215 218 221 218 222 227 231 232 234 241 243 242 243 246
115 131 176 206 107 48 356 289 232 197 229 230 203 199 218 231 227 210 165 193 198 189 188 201 206 211 214 215 216 216 215 226 224 217 226 237 239 229 242 244 247 249 249
233 233 278 296 86 84 349 308 262 241 251 251 231 239 254 244 285 227 168 182 193 200 191 205 212 216 216 217 219 218 218 223 228 232 230 235 237 237 234 242 247 251 253
244 266 266 264 155 139 250 265 251 251 241 262 274 277 152 256 216 230 220 228 190 197 207 212 212 215 213 213 216 213 207 224 215 225 236 233 239 238 240 234 243 246 249
261 225 259 268 257 238 192 220 240 239 234 244 232 235 232 233 238 241 234 233 196 193 189 216 215 229 230 216 210 208 202 214 229 225 240 244 249 258 262 275 252 246 245
272 271 261 260 275 271 275 246 225 242 247 233 257 272 225 237 216 227 223 229 223 212 200 180 185 212 231 215 212 204 200 208 223 235 240 242 251 256 252 254 261 276 254
265 304 282 263 256 241 242 237 244 256 271 323 302 268 260 230 232 212 223 227 246 202 198 212 197 207 204 214 211 208 208 213 219 230 243 243 244 244 248 253 262 268 276
314 258 271 256 254 259 252 257 249 276 281 263 251 341 286 272 232 230 113 301 294 202 199 141 83 60 42 6 279 209 214 218 223 230 240 244 246 246 245 244 255 267 269
285 263 237 308 279 253 300 262 219 239 264 272 217 218 240 241 343 157 211 227 100 33 72 86 65 129 63 6 314 13 348 252 241 246 263 294 265 249 247 242 254 263 270
341 348 5 359 347 344 338 337 303 261 258 261 206 229 256 294 299 320 358 99 43 48 42 22 70 86 89 111 143 83 52 15 53 67 44 32 36 42 61 15 332 311 278
8 23 356 1 347 333 319 312 328 302 276 272 247 266 256 249 242 227 221 98 70 45 31 43 26 74 86 108 99 93 83 62 54 59 52 48 46 47 46 22 353 338 335
97 36 7 350 329 345 341 346 344 343 317 283 269 270 237 220 260 238 168 83 97 53 35 39 54 67 82 90 90 86 77 68 63 58 53 51 50 47 47 44 41 34 30
61 38 15 9 23 8 17 18 25 5 19 348 324 278 259 243 223 237 176 107 118 145 84 27 24 54 62 85 83 83 81 74 68 64 61 59 58 58 58 54 51 47 41
94 49 20 10 23 26 16 33 38 18 11 15 15 12 351 322 301 322 114 129 121 135 102 108 21 36 60 77 101 81 74 77 73 69 63 60 59 60 58 56 51 46 40
77 67 26 18 16 11 348 7 49 23 11 33 35 20 16 26 52 129 166 162 146 146 112 148 110 35 42 70 81 69 65 71 74 72 69 66 66 63 61 58 54 47 40
81 70 54 34 53 13 19 61 60 32 33 30 29 29 35 17 26 37 49 123 107 135 110 87 76 89 67 78 94 98 93 71 66 70 71 66 67 65 62 61 55 48 41
128 156 168 195 152 112 47 100 92 56 42 38 28 33 39 24 39 43 40 74 117 91 115 82 69 55 56 66 52 56 58 88 70 70 70 70 66 64 61 57 54 49 45
90 73 71 70 65 52 35 72 69 63 47 54 41 36 31 33 31 33 47 56 59 81 116 117 106 86 65 41 39 59 56 50 76 66 73 75 76 73 68 61 55 50 53
82 77 62 59 60 56 57 51 93 97 75 53 45 37 26 24 36 52 59 60 52 97 107 115 110 95 104 96 76 53 84 114 89 109 97 88 89 89 81 70 61 54 52
105 97 79 83 81 78 53 69 60 57 85 77 62 52 47 34 21 41 85 79 70 76 89 100 101 88 92 118 124 125 93 34 119 82 46 121 116 106 101 87 74 69 65
101 115 125 127 79 71 44 3 87 64 77 93 86 80 73 64 54 51 44 97 102 97 96 102 93 86 92 139 194 186 156 181 175 183 198 186 172 161 128 98 93 87 87
127 135 142 103 72 76 14 16 27 84 69 71 111 136 128 86 68 59 54 52 64 129 136 136 147 152 172 189 163 189 181 178 203 204 228 215 164 187 159 116 124 118 114
137 122 84 98 102 98 27 24 356 91 102 77 49 35 66 45 48 67 43 45 42 40 59 62 80 81 114 152 189 204 218 220 180 169 177 219 186 145 132 142 152 151 147
161 141 133 123 112 103 25 15 4 121 100 100 92 81 71 71 35 74 81 69 56 46 42 65 70 60 65 21 31 311 229 204 138 209 199 200 199 140 158 144 169 164 166
162 168 160 134 126 133 82 27 353 78 111 87 78 29 89 69 12 19 116 111 101 103 76 94 117 132 119 52 24 355 3 242 230 165 29 276 208 149 170 179 173 180 180
169 156 191 161 142 144 177 72 355 282 143 126 119 94 56 50 13 19 156 160 160 180 155 152 190 259 217 198 76 63 5 1 7 83 341 356 304 207 186 177 158 168 186